Content
SEND FEEDBACK

Daily
Averages
Monthly
Summary
United States of America

NEW YORK - CENTRAL PARK, NEW YORK


Home > North America > United States > New York
Elevation: 4 meters     Latitude: 40 47N     Longitude: 073 58W

WEATHER
 
SELECT A DAY
Number of Records: 148,168;   Date Range: 11/1/95 - 8/12/14
 
SHARE

PRINT THIS DATA

[ ← Previous Day ]
WEATHER ALMANAC - 19 MAY, 2013
[ Next Day → ]
[ °F ]   °C
Weather ElementAverageHighLow
Temperature13.9 °C15 °C (1:26 am)12.8 °C (4:51 am)
Dewpoint12.8 °C13.9 °C (9:51 pm)10 °C (1:26 am)
Humidity92.9 %97 % (8:32 am)72 % (1:26 am)
Barometer1025.4 hPa1027.8 hPa (9:20 am)1022 hPa (11:51 pm)
Wind Speed7.9 km/h14.8 km/h (4:02 pm)
Weather ElementAverage
Visibility5 km
Wind DirectionNNE (32.6 °)

Weather ElementTotal
Precipitation25.65 mm
Heating Degree Days4.4 (Base 18.3)
Growing Degree Days3.9 (Base 10)
Averaged from 57 records on 19 May, 2013
WEATHER CONDITIONS BREAKOUT
WIND DIRECTION BREAKOUT
WEATHER BY HOUR - 19 MAY, 2013
[ °F ]   °C
Local TimeTemperatureDewpointHumidityBarometerVisibilityWind DirectionWind SpeedGust SpeedPrecipitationEventsConditions
1:26 AM15 °C10 °C72 %1026.8 hPa16.1 kmVariable5.6 km/hOvercast
1:51 AM14.4 °C10.6 °C78 %1025.7 hPa16.1 kmVariable5.6 km/hOvercast
2:34 AM14.4 °C11.1 °C81 %1026.4 hPa16.1 kmVariable11.1 km/hOvercast
2:51 AM14.4 °C11.1 °C81 %1025.7 hPa16.1 kmVariable11.1 km/hOvercast
3:46 AM13 °C12 °C94 %1026.4 hPa8 kmVariable5.6 km/h0.51 mmRainLight Rain
3:51 AM13.3 °C12.2 °C93 %1025.7 hPa8 kmVariable11.1 km/h0.51 mmRainLight Rain
4:14 AM13.3 °C12.2 °C93 %1026.4 hPa14.5 kmCalm0.25 mmOvercast
4:51 AM12.8 °C11.7 °C93 %1025.4 hPa8 kmNorth0.51 mmRainLight Rain
5:51 AM13.3 °C11.7 °C90 %1025.4 hPa11.3 kmCalm0.51 mmOvercast
6:42 AM13.3 °C11.7 °C90 %1026.8 hPa11.3 kmCalmOvercast
6:51 AM12.8 °C11.7 °C93 %1026.1 hPa9.7 kmVariable5.6 km/hOvercast
7:17 AM13.3 °C11.7 °C90 %1027.1 hPa4.8 kmCalm0 mmRainLight Rain
7:24 AM13.3 °C12.2 °C93 %1027.1 hPa3.2 kmSSE (160°)7.4 km/h0.25 mmRainLight Rain
7:35 AM13.3 °C12.2 °C93 %1027.1 hPa2.9 kmVariable7.4 km/h0.25 mmRainLight Rain
7:42 AM13.3 °C12.2 °C93 %1027.1 hPa3.2 kmVariable5.6 km/h0.51 mmRainLight Rain
7:51 AM13.3 °C12.2 °C93 %1026.4 hPa3.2 kmVariable7.4 km/h0.76 mmRainLight Rain
8:11 AM13.3 °C12.2 °C93 %1027.1 hPa2.4 kmVariable7.4 km/h0.25 mmRainLight Rain
8:32 AM13.3 °C12.8 °C97 %1027.4 hPa3.2 kmNorth0.76 mmRainLight Rain
8:51 AM13.3 °C12.8 °C97 %1026.4 hPa4.8 kmNorth1.02 mmOvercast
9:20 AM13.3 °C12.8 °C97 %1027.8 hPa4 kmNorth0 mmRainLight Rain
9:30 AM13.9 °C12.8 °C93 %1027.8 hPa4.8 kmVariable7.4 km/h0 mmRainLight Rain
9:36 AM13.9 °C12.8 °C93 %1027.4 hPa2.9 kmCalm0.25 mmRainLight Rain
9:51 AM13.9 °C12.8 °C93 %1026.8 hPa2.4 kmVariable5.6 km/h0.51 mmRainLight Rain
10:51 AM13.9 °C12.8 °C93 %1026.8 hPa3.2 kmVariable7.4 km/h1.78 mmRainLight Rain
11:06 AM13.9 °C12.8 °C93 %1027.8 hPa2.9 kmSSE (150°)13 km/h0.25 mmRainLight Rain
11:33 AM13.9 °C12.8 °C93 %1027.4 hPa3.2 kmSouth (170°)13 km/h1.02 mmRainLight Rain
11:51 AM13.9 °C12.8 °C93 %1026.4 hPa3.2 kmVariable9.3 km/h1.52 mmRainLight Rain
12:41 PM14.4 °C13.3 °C93 %1026.8 hPa1.9 kmNorth0.76 mmRainLight Rain
12:51 PM14.4 °C13.3 °C93 %1026.1 hPa1.9 kmNorth1.27 mmRainLight Rain
1:51 PM14.4 °C13.3 °C93 %1025.1 hPa1.6 kmVariable9.3 km/h2.29 mmRainRain
2:44 PM13.9 °C13.3 °C96 %1025.7 hPa4 kmSE (140°)13 km/h1.78 mmRainLight Rain
2:51 PM14.4 °C13.3 °C93 %1024.7 hPa3.2 kmSE (130°)13 km/h1.78 mmOvercast
2:58 PM13.9 °C13.3 °C96 %1025.4 hPa2.9 kmCalm0 mmRainLight Rain
3:08 PM14.4 °C13.3 °C93 %1025.4 hPa3.2 kmVariable9.3 km/h0.25 mmRainLight Rain
3:51 PM14.4 °C13.3 °C93 %1024 hPa3.2 kmVariable7.4 km/h0.76 mmRainLight Rain
4:02 PM14.4 °C13.3 °C93 %1024.7 hPa2.9 kmSE (140°)14.8 km/h0.25 mmRainLight Rain
4:09 PM13.9 °C13.3 °C96 %1024.7 hPa3.2 kmSSE (150°)14.8 km/h0.25 mmRainLight Rain
4:27 PM13.9 °C13.3 °C96 %1024.7 hPa2.4 kmVariable9.3 km/h0.51 mmRainLight Rain
4:37 PM13.9 °C13.3 °C96 %1024.7 hPa4 kmNorth0.76 mmOvercast
4:51 PM13.9 °C13.3 °C96 %1023.7 hPa3.2 kmESE (120°)14.8 km/h0.76 mmOvercast
5:24 PM13.9 °C13.3 °C96 %1024.4 hPa4.8 kmVariable9.3 km/h0.25 mmOvercast
5:51 PM13.9 °C13.3 °C96 %1023.4 hPa4.8 kmVariable5.6 km/h0.51 mmOvercast
6:04 PM13.9 °C13.3 °C96 %1024 hPa3.2 kmVariable9.3 km/hOvercast
6:32 PM14.4 °C13.3 °C93 %1024 hPa2.4 kmEast (100°)13 km/h0.51 mmRainLight Rain
6:48 PM14 °C13 °C94 %1024 hPa3.2 kmVariable7.4 km/h0.76 mmRainLight Rain
6:51 PM13.9 °C13.3 °C96 %1023.4 hPa4 kmVariable7.4 km/h0.76 mmOvercast
7:46 PM14 °C13 °C94 %1024 hPa2.9 kmVariable7.4 km/hOvercast
7:51 PM14.4 °C13.3 °C93 %1023 hPa2.9 kmVariable7.4 km/hOvercast
8:00 PM14.4 °C13.3 °C93 %1023.7 hPa3.2 kmSSE (150°)11.1 km/hOvercast
8:29 PM14.4 °C13.3 °C93 %1023.4 hPa4.8 kmVariable7.4 km/hOvercast
8:51 PM14.4 °C13.3 °C93 %1022.4 hPa4.8 kmSSE (160°)9.3 km/hOvercast
9:13 PM14.4 °C13.3 °C93 %1023 hPa4 kmVariable9.3 km/hOvercast
9:21 PM14.4 °C13.3 °C93 %1023 hPa4 kmVariable9.3 km/hOvercast
9:51 PM14.4 °C13.9 °C97 %1022.4 hPa3.2 kmVariable5.6 km/hOvercast
10:20 PM14.4 °C13.9 °C97 %1023.4 hPa2.9 kmSE (140°)7.4 km/hOvercast
10:51 PM14.4 °C13.9 °C97 %1022.7 hPa2.4 kmVariable5.6 km/hOvercast
11:51 PM14.4 °C13.9 °C97 %1022 hPa1.9 kmSSE (150°)5.6 km/hOvercast
Hourly data recorded from KNYC, located 0 kilometers away from New York - Central Park, New York







STORIES FROM OUR PARTNERS